Portada
METAR-TAF:

METAR-TAF

Aeroports :

NWS Office

Pohnpei, Micronèsia

latitud: 06-58N, longitud: 158-13E, altitud: 39 m

Observació

L'informe es va fer fa 1 hora i 21 minuts, a les 14:52 UTC
Vent 6 kt del Nord-Est amb ràfegues de 16 kt
Temperatura 27°C
Humitat 79%
Pressió 1008 hPa
Visibilitat: 24.1 km
Cel ennuvolat a una alçada de 1800 ft
Cel ennuvolat a una alçada de 30000 ft

METAR: PTTP 181452Z 05006G16KT 15SM BKN018 BKN300 27/23 A2978 RMK SLP085 60003 8/101 T02720233 57008

Hora: 03:13 (16:13 UTC)


TAF: manca

Observacions i pronòstics meteorològics de més de 4000 aeroports (METAR i TAF).

Les estacions disponibles són els punts grocs i vermells al mapa.

Posi el ratolí al punt desitjat per veure el nom de l'estació.

Feu clic per veure les observacions i els pronòstics meteorològics.

Per canviar el mapa: feu clic els botons verds amb una creu de color negre per apropar; al botó verd amb un guió per allunyar la imatge; o en les fletxes verdes per a mapes adjacents.


METAR-TAF: